TimeCDT,TemperatureF,Dew PointF,Humidity,Sea Level PressureIn,VisibilityMPH,Wind Direction,Wind SpeedMPH,Gust SpeedMPH,PrecipitationIn,Events,Conditions,WindDirDegrees,DateUTC
12:29 AM,64.4,64.4,100,29.95,10.0,SW,3.5,-,N/A,,Overcast,230,2013-10-16 05:29:00
12:56 AM,64.9,64.9,100,29.94,10.0,SW,5.8,-,N/A,,Overcast,220,2013-10-16 05:56:00
1:56 AM,64.9,64.9,100,29.94,10.0,South,5.8,-,N/A,,Overcast,190,2013-10-16 06:56:00
2:38 AM,66.2,66.2,100,29.94,10.0,SW,5.8,-,N/A,,Overcast,220,2013-10-16 07:38:00
2:56 AM,65.8,65.8,100,29.93,10.0,SSW,6.9,-,N/A,,Overcast,210,2013-10-16 07:56:00
3:56 AM,65.8,65.8,100,29.92,6.0,WSW,8.1,-,0.00,Rain,Light Rain,240,2013-10-16 08:56:00
4:25 AM,62.6,60.8,94,29.95,10.0,NW,16.1,25.3,0.00,,Overcast,310,2013-10-16 09:25:00
4:36 AM,62.6,59.0,88,29.95,10.0,NW,11.5,-,0.00,,Overcast,320,2013-10-16 09:36:00
4:56 AM,61.9,59.0,90,29.95,10.0,NW,10.4,-,0.00,,Overcast,310,2013-10-16 09:56:00
5:13 AM,62.6,60.8,94,29.96,10.0,NW,10.4,-,N/A,,Overcast,320,2013-10-16 10:13:00
5:56 AM,59.9,56.8,90,29.96,10.0,NW,8.1,-,N/A,,Overcast,310,2013-10-16 10:56:00
6:56 AM,59.0,54.9,86,29.99,10.0,NW,8.1,-,N/A,,Overcast,310,2013-10-16 11:56:00
7:56 AM,59.0,52.9,80,30.00,10.0,NW,11.5,-,N/A,,Overcast,310,2013-10-16 12:56:00
8:56 AM,57.9,52.9,83,30.01,10.0,NNW,5.8,-,N/A,,Overcast,330,2013-10-16 13:56:00
9:56 AM,57.9,50.0,75,30.01,10.0,NW,5.8,-,N/A,,Mostly Cloudy,310,2013-10-16 14:56:00
10:56 AM,59.9,47.8,64,30.01,10.0,Variable,6.9,-,N/A,,Mostly Cloudy,0,2013-10-16 15:56:00
11:56 AM,61.9,47.8,60,30.00,10.0,Variable,5.8,-,N/A,,Mostly Cloudy,0,2013-10-16 16:56:00
12:56 PM,63.0,48.9,60,29.99,10.0,NNW,9.2,-,N/A,,Mostly Cloudy,330,2013-10-16 17:56:00
1:56 PM,59.9,47.8,64,29.98,10.0,WNW,5.8,-,0.00,Rain,Light Rain,300,2013-10-16 18:56:00
2:56 PM,59.0,48.9,69,29.98,10.0,NW,4.6,-,0.00,,Overcast,310,2013-10-16 19:56:00
3:56 PM,61.0,50.0,67,29.97,10.0,WNW,6.9,-,N/A,,Mostly Cloudy,300,2013-10-16 20:56:00
4:56 PM,59.9,48.9,67,29.97,10.0,WNW,5.8,-,N/A,,Mostly Cloudy,300,2013-10-16 21:56:00
5:56 PM,59.0,47.8,66,29.97,10.0,NW,3.5,-,N/A,,Partly Cloudy,310,2013-10-16 22:56:00
6:56 PM,54.9,47.8,77,29.98,10.0,Calm,Calm,-,N/A,,Clear,0,2013-10-16 23:56:00
7:56 PM,52.9,47.8,83,29.99,10.0,Calm,Calm,-,N/A,,Clear,0,2013-10-17 00:56:00
8:56 PM,52.0,47.8,86,29.99,10.0,Calm,Calm,-,N/A,,Clear,0,2013-10-17 01:56:00
9:56 PM,48.9,47.8,96,29.99,10.0,Calm,Calm,-,N/A,,Clear,0,2013-10-17 02:56:00
10:56 PM,47.8,47.8,100,29.99,10.0,Calm,Calm,-,N/A,,Clear,0,2013-10-17 03:56:00
11:56 PM,47.8,47.8,100,29.98,10.0,NNW,3.5,-,N/A,,Clear,340,2013-10-17 04:56:00